Simultaneous Nadir Overpasses (SNOs) Predictions

Prediction of SNOs between GOES-17 and AQUA Satellite Orbit:

Table of predicted SNOs for the next 14.0 days since TLE Epoch: 10/17/2025
Index Date Time (GOES-17) GOES-17 Lat,Lon AQUA Lat,Lon Distance(km) Time Diff (sec)
1 10/19/2025 08:37:19 -0.13, -89.50 -0.99, -85.50 454.95 80
2 10/19/2025 20:59:08 0.10, -89.51 -0.01, -90.13 70.08 80
3 10/22/2025 08:57:14 -0.09, -89.52 -0.10, -89.59 7.79 80
4 10/24/2025 20:52:47 0.08, -89.54 0.18, -89.09 51.14 80
5 10/25/2025 09:14:26 -0.05, -89.55 0.86, -93.66 468.86 80
6 10/27/2025 08:50:51 -0.07, -89.56 -0.32, -88.55 115.48 80
7 10/27/2025 21:12:37 0.04, -89.55 -0.74, -93.16 410.34 80
8 10/29/2025 20:49:01 0.06, -89.57 0.38, -88.03 175.26 80
9 10/30/2025 09:10:39 -0.03, -89.59 0.63, -92.61 343.86 80
